EHI
0 2 6 7 6 4 3 3 3 3 3 3 2 2 2 1 1 1 1 1 2 1 0 0 0 0 0 0 0 0 0 0 0 0 0 0 0 0 0 0 0 0 0
1 3 6 8 7 5 3 3 4 3 3 3 1 1 1 1 1 2 2 2 1 1 0 0 0 0 0 0 0 0 0 0 0 0 0 0 0 0 0 0 0 0 0
1 3 7 8 8 6 4 4 4 4 3 2 1 0 0 0 1 2 3 2 1 0 0 0 0 0 0 0 0 0 0 0 0 0 0 0 0 0 0 0 0 0 0
1 3 7 9 8 7 5 4 4 3 3 2 1 0 0 0 0 1 2 2 1 0 0 0 0 0 0 0 0 0 0 0 0 0 0 0 0 0 0 0 0 0 0
1 3 7 10 10 8 6 4 3 3 3 2 1 0 0 0 0 0 1 1 0 0 0 0 0 0 0 0 0 0 0 0 0 0 0 0 0 0 0 0 0 0 0
1 3 7 12 12 9 7 5 4 3 3 1 0 0 0 0 0 0 0 0 0 0 0 0 0 0 0 0 0 0 0 0 0 0 0 0 0 0 0 0 0 0 0
2 3 7 14 15 12 9 7 5 4 3 2 1 0 0 0 0 0 0 0 0 0 0 0 0 0 0 0 0 0 0 0 0 0 0 0 0 0 0 0 0 0 0
6 6 9 13 15 13 10 7 7 6 5 4 2 1 1 0 0 0 0 0 0 0 0 0 0 0 0 0 0 0 0 0 0 0 0 0 0 0 0 0 0 0 0
9 9 9 10 12 12 9 6 7 6 5 4 3 2 1 0 0 0 0 0 0 0 0 0 0 0 0 0 0 0 0 0 0 0 0 0 0 0 0 0 0 0 0
9 8 7 7 8 8 6 5 5 5 4 3 3 2 1 0 0 0 0 0 0 0 0 0 0 0 0 0 0 0 0 0 0 0 0 0 0 0 0 0 0 0 0
6 6 6 5 4 4 4 3 3 4 3 3 3 1 0 0 0 0 0 0 0 0 0 0 0 0 0 0 0 0 0 0 0 0 0 0 0 0 0 0 0 0 0
2 3 4 4 3 2 2 1 2 3 3 4 3 1 0 0 0 0 0 0 0 0 0 0 0 0 0 0 0 0 0 0 0 0 0 0 0 0 0 0 0 0 0
0 1 3 3 3 1 0 0 1 3 4 4 3 1 1 0 0 0 0 0 0 0 0 0 0 0 0 0 0 0 0 0 0 0 0 0 0 0 0 0 0 0 0
1 1 2 3 3 1 0 0 1 2 4 5 4 3 2 1 0 0 0 0 0 0 0 0 0 0 0 0 0 0 0 0 0 0 0 0 0 0 0 0 0 0 0
3 3 3 3 3 2 1 0 0 1 3 4 4 3 3 2 1 0 0 0 0 0 0 0 0 0 0 0 0 0 0 0 0 0 0 0 0 0 0 0 0 0 0
5 5 5 4 4 3 1 0 0 0 1 3 3 3 2 2 1 0 0 0 0 0 0 0 0 0 0 0 0 0 0 0 0 0 0 0 0 0 0 0 0 0 0
6 5 5 4 4 3 1 0 0 0 0 1 2 3 2 1 0 0 0 0 0 0 0 0 0 0 0 0 0 0 0 0 0 0 0 0 0 0 0 0 0 0 0
5 5 4 5 5 4 2 1 1 2 1 0 1 2 2 1 1 0 0 0 0 0 0 0 0 0 0 0 0 0 0 0 0 0 0 0 0 0 0 0 0 0 0
4 5 5 5 6 5 3 2 3 3 2 1 0 1 2 2 2 1 0 0 0 0 0 0 0 0 0 0 0 0 0 0 0 0 0 0 0 0 0 0 0 0 0
2 3 5 6 6 6 4 3 3 3 2 1 0 0 1 2 2 1 0 0 0 0 0 0 0 0 0 0 0 0 0 0 0 0 0 0 0 0 0 0 0 0 0
0 1 2 5 6 6 5 4 3 3 2 1 1 0 0 1 2 2 1 0 0 0 0 0 0 0 0 0 0 0 0 0 0 0 0 0 0 0 0 0 0 0 0
0 0 1 2 4 5 4 4 3 2 1 1 1 0 0 0 1 1 1 0 0 0 0 0 0 0 0 0 0 0 0 0 0 0 0 0 0 0 0 0 0 0 0
0 0 0 1 1 2 3 4 4 2 0 1 1 1 0 0 0 0 0 0 0 0 0 0 0 0 0 0 0 0 0 0 0 0 0 0 0 0 0 0 0 0 0
0 0 0 0 0 1 1 3 3 2 1 0 1 1 1 0 0 0 0 0 0 0 0 0 0 0 0 0 0 0 0 0 0 0 0 0 0 0 0 0 0 0 0
0 0 0 0 0 0 0 1 1 1 1 0 1 2 1 1 1 0 0 0 0 0 0 0 0 0 0 0 0 0 0 0 0 0 0 0 0 0 0 0 0 0 0
0 0 0 0 0 0 0 0 0 1 0 0 1 2 2 2 2 1 0 0 0 0 0 0 0 0 0 0 0 0 0 0 0 0 0 0 0 0 0 0 0 0 0
Wind_Speed
1 2 0 3 5 6 7 8 8 9 9 10 11 11 11 11 11 12 12 12 12 13 12 13 13 14 14 15 15 15 15 15 15 15 14 14 14 14 15 15 13 10 16
1 1 1 3 5 6 7 8 8 8 8 9 10 10 10 10 10 11 11 12 12 13 13 12 12 13 13 13 14 14 14 14 14 14 12 10 11 13 15 14 14 10 15
1 1 2 4 5 6 7 8 8 8 8 8 9 9 10 10 10 10 11 12 12 12 12 12 12 12 12 12 13 13 13 13 13 12 10 6 7 12 14 14 14 14 15
2 2 2 4 6 7 7 7 7 7 8 8 8 8 9 10 10 10 11 11 12 12 11 11 11 11 11 11 12 12 12 12 12 9 5 4 5 11 13 14 14 14 14
3 2 2 5 6 7 7 7 7 7 7 7 7 8 8 9 9 10 10 11 11 11 11 11 10 10 10 11 11 12 12 12 11 8 5 4 4 11 13 13 14 14 14
4 3 3 5 6 7 7 7 7 7 7 7 7 7 8 8 9 10 10 10 10 10 10 10 10 9 9 10 11 11 11 11 8 5 4 4 4 10 12 13 13 13 13
4 4 3 6 6 6 6 6 6 7 7 6 6 6 7 8 9 9 9 9 9 9 9 9 9 9 9 9 10 10 10 9 6 4 4 3 5 10 12 12 12 12 12
4 4 4 6 6 6 6 6 6 6 7 6 6 6 7 8 9 8 8 8 8 8 8 8 8 8 8 9 9 9 9 8 7 5 4 4 8 10 11 12 11 12 12
5 4 4 3 4 5 5 5 6 6 6 6 6 6 6 7 7 7 7 7 7 7 7 7 7 7 8 8 9 9 9 8 5 3 4 3 7 10 11 11 11 11 11
6 5 4 4 3 3 2 5 5 6 6 6 6 6 6 6 6 6 6 6 6 6 6 6 6 6 7 7 8 9 8 6 4 3 2 3 8 10 10 10 10 11 11
5 5 5 4 4 3 2 3 4 4 5 5 4 5 5 3 3 3 4 4 4 5 4 5 5 5 6 6 7 7 6 3 3 2 2 5 8 9 9 10 10 11 10
4 4 4 4 4 3 2 2 1 2 2 2 2 2 2 2 2 3 3 3 3 3 3 4 4 4 4 3 4 5 2 3 2 1 2 5 7 9 8 9 9 10 10
1 2 3 3 3 2 2 1 1 1 1 2 2 2 2 2 2 2 1 2 2 2 1 2 2 2 2 1 2 2 2 2 2 1 2 4 6 8 8 8 8 9 9
2 2 3 3 2 2 2 1 1 1 1 1 1 1 2 1 1 1 1 1 0 0 1 1 1 1 1 1 2 2 2 1 1 1 1 4 5 7 7 8 8 8 9
2 2 2 2 2 2 2 1 1 0 1 0 1 1 1 2 1 1 1 0 0 0 1 1 1 1 1 1 2 2 2 2 2 1 1 3 4 5 7 7 8 8 8
1 2 2 2 1 2 1 1 0 0 0 1 1 0 1 1 2 1 1 1 0 0 1 1 1 1 1 1 1 2 2 2 2 2 1 1 3 4 6 7 7 7 7
1 2 2 2 1 1 1 1 0 0 0 1 1 1 1 1 2 2 2 1 1 1 1 1 1 1 1 1 1 2 2 2 2 2 1 1 1 3 4 6 6 6 6
1 1 2 1 1 1 1 1 1 1 1 1 1 1 2 2 2 2 2 2 1 1 1 1 1 1 1 1 1 1 1 1 2 2 1 1 1 1 2 4 5 5 6
1 1 1 1 1 1 0 1 1 1 1 1 1 1 2 2 2 2 2 2 2 1 1 1 1 1 1 1 1 0 1 1 2 2 2 2 2 2 1 3 4 4 4
1 1 0 1 1 0 0 1 1 1 1 1 1 1 2 2 2 2 2 2 2 2 1 1 1 1 1 2 1 1 0 1 1 1 2 2 2 2 2 2 2 2 3
2 2 1 1 1 0 0 0 1 1 2 2 2 2 2 2 2 2 2 2 2 2 2 2 1 2 1 1 2 1 1 0 1 1 1 2 2 2 2 2 2 1 1
3 3 2 1 1 1 1 1 2 2 2 3 2 2 3 3 3 2 2 2 2 2 2 2 2 2 1 2 2 2 1 1 1 2 2 2 2 2 2 2 2 2 2
4 4 3 3 2 1 1 1 1 1 1 2 2 2 2 3 3 3 3 3 3 3 3 3 4 3 3 2 2 3 3 3 2 1 2 2 3 2 2 2 3 3 3
4 4 4 3 3 2 1 1 2 2 2 3 2 2 3 3 3 3 3 3 3 3 3 4 4 2 4 4 2 2 2 2 3 2 2 2 3 3 4 3 3 3 3
4 4 4 4 3 2 2 2 3 3 3 3 2 3 3 3 3 4 4 3 4 3 4 4 3 3 4 4 3 2 1 1 1 3 3 3 2 3 4 4 3 3 3
5 5 4 4 3 3 2 2 3 3 4 4 3 3 3 3 3 4 4 4 4 3 4 5 4 5 4 4 3 3 3 3 2 2 3 4 3 3 3 3 4 4 3
Wind_Direction
276 265 197 105 99 100 100 96 93 86 83 82 79 78 80 82 85 86 85 85 85 85 86 87 88 87 87 85 84 83 82 81 78 76 75 79 83 85 85 83 78 74 79
211 200 118 103 105 104 102 98 95 88 85 85 84 84 82 83 83 84 87 86 85 83 83 84 86 87 88 88 87 86 86 85 81 75 71 73 79 85 87 86 82 82 81
84 139 131 90 98 103 103 98 96 91 88 86 86 87 85 82 84 84 86 86 84 83 82 83 83 86 87 89 90 89 88 89 83 76 70 67 80 87 90 90 87 85 83
80 102 120 85 99 102 99 97 97 94 91 88 88 88 87 85 83 85 86 86 84 84 83 82 83 83 84 87 90 89 88 89 83 77 66 61 77 89 91 92 89 88 86
68 75 89 89 101 105 101 96 95 96 95 92 90 89 89 89 87 83 87 86 85 84 85 84 81 82 84 85 88 88 88 88 82 74 65 62 72 91 91 90 90 90 89
53 49 66 82 100 103 104 101 96 94 95 95 90 89 91 90 89 88 87 90 88 86 86 87 81 82 84 84 86 88 91 87 78 67 65 68 77 93 93 92 93 93 92
56 45 62 64 87 96 104 103 96 96 93 93 92 92 93 92 91 90 90 92 94 92 88 87 85 80 84 87 87 87 92 88 79 69 65 69 86 96 97 95 95 96 95
68 57 53 46 63 77 92 99 95 93 92 88 88 93 94 93 92 91 91 89 97 97 93 88 85 79 80 87 89 87 86 89 83 79 68 75 96 99 97 96 96 97 98
58 58 48 43 44 60 69 75 83 82 84 82 77 80 81 86 92 94 91 89 95 100 98 91 85 78 78 83 85 83 82 78 74 74 82 77 99 103 100 100 100 99 99
50 43 33 30 34 38 67 59 62 73 73 73 68 66 71 81 89 90 87 86 88 98 101 96 88 79 78 79 80 83 80 73 70 66 70 89 102 107 105 104 104 103 103
39 32 26 21 21 25 39 55 55 71 71 71 68 61 67 87 94 88 83 82 83 91 102 101 90 82 74 73 78 82 77 73 78 63 73 97 108 112 112 108 108 106 106
26 19 23 19 15 13 23 45 60 74 83 75 72 72 72 77 80 77 74 76 78 80 92 89 76 76 64 63 70 74 76 79 74 61 74 101 115 116 113 114 113 112 111
22 19 15 9 13 18 9 27 46 58 59 74 76 64 69 72 79 78 77 63 61 75 76 63 60 54 48 69 81 78 88 83 71 53 72 105 120 123 121 120 120 118 117
33 12 5 6 17 14 19 21 44 78 68 56 68 85 97 96 92 103 94 95 46 35 88 71 71 44 42 77 100 97 95 88 82 56 66 92 121 128 129 130 127 122 120
29 1 348 356 17 18 19 24 43 59 127 121 75 107 111 126 134 134 125 118 28 18 157 140 125 59 54 88 112 119 118 106 101 85 70 95 116 130 132 133 133 127 123
359 334 336 345 14 31 24 8 45 305 195 159 137 188 152 147 157 160 162 175 193 257 214 188 171 147 147 125 123 134 142 137 120 117 113 116 114 126 136 134 127 128 127
319 328 324 323 25 34 18 351 12 301 234 177 187 217 194 153 171 172 176 193 210 247 223 174 126 125 112 107 105 139 148 147 144 143 135 130 128 129 133 134 128 123 121
332 339 322 337 12 14 11 340 326 308 280 222 207 210 213 185 178 179 186 203 205 198 198 165 132 118 112 118 111 138 152 153 153 161 145 141 131 131 134 130 127 125 124
251 259 311 357 351 326 352 354 328 288 294 252 218 212 220 197 185 189 193 203 188 176 200 173 152 137 143 134 140 104 154 162 164 169 161 160 153 138 137 136 131 130 129
284 277 345 1 331 327 3 6 341 322 321 287 235 224 223 202 188 189 195 198 182 173 197 174 166 161 162 159 131 83 236 184 167 177 176 171 164 156 157 148 141 146 141
351 353 337 349 320 3 36 324 268 263 283 285 255 236 226 215 194 183 190 192 193 188 199 178 158 156 158 144 113 76 359 10 162 183 177 170 174 171 169 166 165 166 170
346 345 334 309 287 296 224 216 229 246 251 255 250 249 227 216 203 192 182 192 201 196 196 181 153 162 197 179 158 145 158 254 238 207 184 184 183 179 180 182 182 183 187
345 334 328 320 302 300 278 245 271 300 308 290 274 269 258 228 208 202 199 196 202 193 203 199 179 176 188 214 201 172 173 200 219 229 204 200 194 189 192 197 192 189 190
320 316 314 312 310 294 273 221 213 232 251 267 251 249 262 245 221 202 202 203 202 198 205 208 198 199 185 199 224 233 224 180 173 198 238 221 210 204 201 204 205 202 191
325 318 313 321 323 318 302 241 222 245 251 269 257 252 254 251 234 210 201 205 208 208 213 209 203 209 202 205 207 211 220 232 193 172 203 219 227 219 209 205 200 200 198
338 332 325 331 325 322 304 269 238 244 257 267 264 251 248 248 243 226 210 211 213 213 220 216 207 211 217 222 221 215 201 195 199 184 190 200 220 234 216 208 202 201 201